Flag for Germany Weather past 2 weeks in Lahr, Baden-Württemberg, Germany

Now
58 °F

Scattered clouds.


Feels Like: 58 °F
Forecast: 46 / 59 °F
Wind: 1 mph from West

Location: Lahr

Current Time: Oct 24, 2014 at 5:07:02 PM

Latest Report: Oct 24, 2014 at 4:00 PM


Visibility: 19 mi

Pressure: 30.13 "Hg

Humidity: 60%

Dew point: 44 °F

Location of LahrLocation

Historic Weather in Lahr — Graph

°F

Lahr temperature yesterday

Maximum temperature yesterday: 57 °F (at 3:00 PM)
Minimum temperature yesterday: 45 °F (at 11:00 PM)
Average temperature yesterday: 50 °F

Past Weeks' High & Low Weather Summary

 TemperatureHumidityPressure
High77 °F (Oct 19, 4:00 PM)100% (Oct 11, 3:00 AM)30.33 "Hg (Oct 11, 3:00 AM)
Low36 °F (Oct 24, 7:00 AM)48% (Oct 19, 4:00 PM)29.70 "Hg (Oct 21, 6:00 PM)
Average58 °F85%29.99 "Hg
* Reported Oct 9 4:00 PM — Oct 24 4:00 PM, Lahr, Weather by CustomWeather, © 2014

Note: Actual official high and low records may vary slightly from our data, if they occured in-between our weather recording intervals... More about our weather records

Advertising

Lahr weather history for previous 24 hours

 ConditionsComfort  
Time TempWeatherWind HumidityBarometerVisibility
4:00 PM
Oct 24
58 °FScattered clouds.1 mph60%30.13 "Hg19 mi
3:00 PM57 °FPassing clouds.1 mph64%30.15 "Hg18 mi
2:00 PMN/APassing clouds.8 mphN/AN/A2 mi
1:00 PM49 °FPassing clouds.1 mph80%30.21 "Hg10 mi
12:00 PM45 °FPartly sunny.1 mph87%30.22 "Hg6 mi
11:00 AM41 °FFog.1 mph98%30.24 "Hg1 mi
10:00 AM40 °FFog.3 mph100%30.24 "Hg0 mi
9:00 AM38 °FFog.2 mph100%30.24 "Hg0 mi
8:00 AM38 °FFog.1 mph100%30.24 "Hg0 mi
7:00 AM36 °FFog.1 mph99%30.24 "Hg2 mi
6:00 AM37 °FFog.1 mph100%30.24 "Hg1 mi
5:00 AM39 °FFog.1 mph99%30.24 "Hg2 mi
4:00 AM39 °FFog.1 mph99%30.25 "Hg2 mi
3:00 AM40 °FClear.2 mph99%30.27 "Hg5 mi
2:00 AM46 °FClear.2 mph86%30.27 "Hg14 mi
1:00 AM42 °FClear.2 mph97%30.28 "Hg6 mi
12:00 AM43 °FFog.1 mph96%30.28 "Hg4 mi
11:00 PM
Oct 23
45 °FClear.1 mph88%30.27 "Hg12 mi
10:00 PM48 °FOvercast.1 mph85%30.27 "Hg11 mi
9:00 PM47 °FPassing clouds.1 mph87%30.28 "Hg12 mi
8:00 PM48 °FPassing clouds.1 mph82%30.28 "Hg9 mi
7:00 PM50 °FPassing clouds.2 mph78%30.27 "Hg13 mi
6:00 PM55 °FScattered clouds.1 mph61%30.25 "Hg17 mi
5:00 PM56 °FPassing clouds.1 mph57%30.26 "Hg17 mi
Weather by CustomWeather, © 2014

See weather overviewHow to use our weather pages